KLEX Airport Diagram

We have created a template for each of the higher traffic airports in the vZID airspace. They include KCMH, KCRW, KCVG, KDAY, KIND, KLEX and KSDF. You wil find usefull information including the airport diagram, weather, and specific airport procedures.

KLEX Weather

[Source: ADDS]
METAR
KLEX 181754Z 09009KT 10SM SCT049 31/16 A3008 RMK AO2 SLP175 T03060161 10311 20183 58002 =
KLEX 181734Z 1818/1918 07006KT P6SM SCT050 FM191200 16008KT P6SM SCT050 SCT250 FM191600 18009KT P6SM SCT060 SCT250
TAF
KLEX 181734Z 1818/1918 07006KT P6SM SCT050 FM191200 16008KT P6SM SCT050 SCT250 FM191600 18009KT P6SM SCT060 SCT250 =

KLEX Operations

Calm wind runway at KLEX is Runway 22, up to and including 10kts.

Default scenery shows Runway 8/26, which crosses Runway 22. When taxiing to Runway 22, clearance to cross Runway 26 not required.

Updated scenery available at www.flightsim.com.

 

JSN Epic template designed by JoomlaShine.com